Theta_e
326 326 325 325 326 326 325 325 326 328 326 320 321 325 328 327 327 326 323 319 317 314 312 310 309 308 308 307 303 302 303 302
326 326 326 325 325 326 326 326 326 328 326 322 323 325 328 327 326 324 322 319 315 312 310 309 309 308 305 303 302 302 301 300
328 326 326 327 327 327 327 327 327 328 326 325 325 325 326 324 324 322 321 317 313 311 310 309 307 305 301 300 301 302 301 300
330 328 327 327 328 328 328 327 327 327 327 326 326 325 323 318 317 317 315 313 311 310 309 307 303 299 297 296 298 300 301 299
331 329 328 327 327 328 328 327 327 328 328 327 325 323 319 315 315 313 312 311 310 309 306 301 299 297 296 297 298 299 300 300
330 330 329 328 327 327 328 327 326 327 327 325 323 322 319 316 313 311 311 309 308 306 302 299 297 295 297 299 299 299 298 298
327 328 329 329 327 327 328 327 325 324 325 325 323 321 319 314 311 309 308 306 303 301 299 298 296 296 301 303 300 297 297 297
326 326 328 328 327 327 327 327 326 324 324 323 322 320 318 314 312 310 308 306 303 300 299 297 295 300 303 298 297 297 297 297
324 325 327 328 327 326 326 327 326 324 323 324 322 318 317 313 312 309 308 306 303 301 298 296 296 300 297 297 297 298 297 296
322 323 324 326 326 326 326 326 326 324 324 324 323 320 319 316 313 310 308 306 304 300 297 295 298 301 296 297 298 296 297 297
319 321 321 324 325 325 325 326 326 325 324 324 323 321 319 316 313 310 306 305 302 298 296 296 300 296 296 295 295 295 296 297
321 320 320 322 324 324 325 325 326 325 323 324 322 321 319 315 312 309 307 306 301 298 296 299 295 295 294 294 293 294 295 295
323 322 322 322 323 324 324 324 324 321 323 322 320 319 316 313 311 311 309 309 300 298 297 295 295 294 294 294 296 295 294 294
322 324 324 323 323 321 321 321 322 322 321 318 314 312 309 308 307 307 306 301 299 297 296 295 294 294 294 295 296 294 294 294
320 323 322 321 320 320 319 318 318 317 316 313 311 310 308 306 305 303 302 299 298 296 295 295 294 295 295 297 296 294 294 294
318 320 320 319 318 317 317 316 315 314 312 310 309 308 306 304 301 299 298 298 297 296 295 295 294 298 298 297 294 294 294 294
312 312 312 312 312 315 315 315 314 312 309 308 306 305 304 302 300 299 298 296 296 295 295 294 296 297 298 297 294 293 293 293
306 306 307 308 309 310 311 311 310 308 306 305 304 303 302 300 299 298 297 296 294 294 296 297 296 296 298 294 294 292 292 292
303 302 302 302 303 303 304 305 304 303 302 301 302 301 300 298 297 296 295 295 297 297 296 296 296 297 296 294 294 292 292 292
Wind_Speed
15 19 19 20 20 20 21 23 21 18 19 19 19 18 17 18 18 19 19 19 19 17 14 14 12 10 7 6 4 5 5 5
16 18 21 21 22 22 23 23 23 22 22 18 18 19 20 20 20 20 20 21 19 17 16 14 13 9 7 7 7 6 4 6
15 19 21 24 25 25 24 26 27 28 26 24 21 23 21 21 21 20 20 20 19 17 16 15 12 10 9 8 9 6 4 7
14 20 25 26 26 27 26 25 27 28 29 27 21 22 19 17 18 19 21 21 20 18 16 14 12 9 8 8 9 9 10 6
15 21 26 29 29 27 28 29 33 32 32 31 32 24 18 17 21 22 24 23 22 20 18 15 11 10 9 9 8 6 5 6
19 23 26 26 26 28 30 29 31 30 33 32 30 26 24 22 25 26 25 24 22 22 20 17 15 14 14 9 6 5 8 8
19 24 24 26 26 26 30 28 27 27 32 33 34 35 31 25 29 29 27 25 24 23 21 18 17 17 14 10 6 11 7 4
18 19 26 27 28 28 27 27 27 29 33 35 37 39 34 33 34 36 35 32 31 29 25 21 20 16 11 12 11 11 8 6
19 21 25 27 28 28 27 28 28 28 33 36 39 37 35 32 32 35 37 35 32 30 25 22 19 10 11 15 13 11 9 10
16 19 25 26 25 29 32 28 27 27 33 34 36 37 36 35 35 37 37 34 32 29 26 23 16 16 17 15 10 9 9 9
10 13 20 21 23 22 22 26 30 31 27 29 33 35 37 35 35 37 35 33 30 30 26 21 15 19 16 14 9 10 11 11
5 9 14 17 17 21 25 27 25 24 24 33 34 35 33 33 34 34 34 32 33 31 27 20 20 18 13 9 8 11 14 14
5 6 6 9 14 15 17 18 20 21 28 30 30 29 28 31 31 35 34 35 36 32 28 24 23 16 12 8 8 14 17 17
3 2 4 5 7 8 12 15 19 22 23 22 20 19 19 20 22 28 29 34 33 29 24 22 19 14 10 11 9 16 20 21
2 2 3 5 8 10 10 11 13 14 15 16 16 16 16 16 19 22 28 32 32 27 21 16 14 9 6 8 14 19 22 23
7 5 4 2 2 3 4 5 7 8 11 11 12 13 13 14 18 24 27 27 27 25 24 20 14 5 8 16 17 19 21 24
12 12 12 11 7 4 3 3 4 5 5 5 6 7 9 14 17 18 18 21 22 21 21 20 14 10 16 17 20 20 23 24
11 10 11 11 12 11 8 4 1 0 1 2 3 6 8 10 12 13 16 19 17 17 14 8 7 14 20 18 20 25 23 22
9 11 13 14 13 15 14 12 10 8 7 5 5 7 8 10 12 15 17 18 13 10 9 11 16 21 20 20 23 27 25 26
Wind_Direction
191 191 194 195 197 197 202 203 206 207 199 196 201 207 203 201 196 195 192 192 193 191 179 170 162 167 157 172 173 168 163 168
207 204 200 200 204 204 203 205 206 203 198 196 202 202 202 199 198 198 197 195 191 187 180 172 172 169 178 184 175 166 149 176
213 206 208 211 208 208 206 206 204 201 201 204 205 203 203 199 194 194 196 192 189 187 185 182 177 181 182 186 195 169 152 178
215 208 208 211 212 211 211 211 208 206 205 205 201 199 200 198 190 192 190 190 188 191 192 187 181 180 176 183 194 190 175 180
219 208 210 209 210 212 212 211 210 211 212 209 206 198 188 201 197 191 187 190 191 193 192 186 180 172 169 168 179 188 186 165
216 215 217 215 210 212 214 213 212 213 213 211 208 209 202 203 199 190 189 189 195 192 192 187 180 171 163 156 164 195 199 195
222 222 215 215 212 211 215 212 212 210 213 213 212 214 209 203 195 191 190 191 194 195 192 187 182 173 174 195 187 209 202 185
216 210 208 209 206 207 208 209 211 213 216 213 215 222 220 215 205 203 197 196 199 198 195 191 187 190 221 181 186 202 201 195
220 218 213 209 206 207 207 208 211 210 216 219 221 222 223 220 216 213 209 205 207 201 197 193 187 213 183 212 195 201 210 204
226 222 218 214 209 207 208 209 213 214 218 219 223 224 227 227 226 222 218 216 213 205 195 189 194 232 203 208 203 211 224 220
221 222 219 217 216 212 208 215 217 220 217 221 225 227 230 228 229 225 219 218 210 199 195 199 243 198 206 202 208 228 233 230
234 216 217 215 210 202 209 216 221 221 215 225 227 228 230 227 225 222 224 221 211 203 199 222 201 199 195 206 220 241 230 225
249 204 203 206 207 208 212 214 216 221 232 234 232 231 230 229 225 229 225 217 211 204 205 200 193 192 201 210 264 255 237 228
286 80 166 198 198 194 211 222 230 234 233 236 233 228 223 224 226 227 221 212 204 203 203 192 194 189 193 231 270 258 247 242
78 107 152 176 192 209 211 211 227 230 231 229 228 230 228 225 226 217 215 205 202 197 194 194 183 166 218 275 260 257 255 251
73 94 109 134 193 222 244 240 231 234 226 221 226 231 228 216 207 209 205 202 198 196 191 184 179 194 278 297 263 269 270 264
73 71 68 56 37 18 341 310 281 262 252 245 239 224 220 213 210 207 207 201 197 193 180 175 194 222 290 279 281 282 281 275
79 70 63 56 52 56 51 46 39 259 272 273 242 221 203 208 209 201 196 192 177 159 167 189 219 252 289 284 279 292 287 283
76 76 77 67 71 73 77 74 76 80 85 105 138 152 145 148 149 155 150 141 148 179 197 231 255 274 279 280 282 288 287 284